CZ-4B DEB

Last updated on Sun Jun 29 2025 00:02:04 GMT+0000 (Coordinated Universal Time)

1 64200U 25115B 25179.48033508 .00017989 00000+0 10070-2 0 9994 2 64200 97.5232 254.3996 0060530 94.0125 266.8027 15.11903938 4572

Satellite not in orbit